Regional Weather Roundup
Issued by NWS Upton, NY

Current Version | Previous Version | Graphics & Text | Print | Product List | Glossary Off
Versions: 1 2 3 4 5 6 7 8 9 10 11 12 13 14 15 16 17 18 19 20 21 22 23 24 25 26 27 28 29 30 31 32 33 34 35 36 37 38 39 40 41 42 43 44 45 46
000 ASUS41 KOKX 211105 RWROKX REGIONAL WEATHER ROUNDUP NATIONAL WEATHER SERVICE NEW YORK NY 700 AM EDT TUE OCT 21 2014 NOTE: "FAIR" INDICATES FEW OR NO CLOUDS BELOW 12,000 FEET WITH NO SIGNIFICANT WEATHER AND/OR OBSTRUCTIONS TO VISIBILITY. NYZ071-072-176-178-NJZ106-104-211200- NEW YORK CITY METRO AREA CITY SKY/WX TMP DP RH WIND PRES REMARKS CENTRAL PARK CLOUDY 55 45 68 CALM 29.92S LAGUARDIA APRT CLOUDY 56 45 66 CALM 29.89F KENNEDY INTL CLOUDY 54 48 80 N5 29.91S NEWARK/LIBERTY CLOUDY 53 44 71 NE3 29.89F BRNX BOT. GARD N/A 52 46 82 N1 29.91S TETERBORO CLOUDY 52 45 77 CALM 29.89S $$ NYZ177-179-078>081-211200- LONG ISLAND NEW YORK CITY SKY/WX TMP DP RH WIND PRES REMARKS FARMINGDALE CLOUDY 52 47 83 CALM 29.91S ISLIP CLOUDY 52 47 83 CALM 29.90R SHIRLEY CLOUDY 49 46 90 CALM 29.92S WESTHAMPTON CLOUDY 48 44 86 CALM 29.93S MONTAUK POINT N/A 53 51 93 CALM 29.94S $$ NYZ052-065-067-211200- HUDSON VALLEY CITY SKY/WX TMP DP RH WIND PRES REMARKS WHITE PLAINS CLOUDY 50 46 86 CALM 29.90R NEWBURGH CLOUDY 50 48 93 CALM 29.90F MONTGOMERY LGT RAIN 46 44 93 CALM 29.89F POUGHKEEPSIE CLOUDY 49 46 90 CALM 29.90F ALBANY LGT RAIN 49 46 90 CALM 29.91R $$ NJZ001-105-106-008-010-013-015-019>022-104-211200- NEW JERSEY CITY SKY/WX TMP DP RH WIND PRES REMARKS NEWARK/LIBERTY CLOUDY 53 44 71 NE3 29.89F TETERBORO CLOUDY 52 45 77 CALM 29.89S CALDWELL CLOUDY 48 43 82 E5 29.89F MORRISTOWN CLOUDY 48 45 87 CALM 29.89F SOMERVILLE MOCLDY 47 45 93 CALM 29.87S SUSSEX CLOUDY 49 46 90 CALM 29.89S ANDOVER N/A 49 47 93 CALM 29.88S TRENTON MOCLDY 49 45 86 CALM 29.88S MILLVILLE PTCLDY 49 48 97 CALM 29.87S FOG ATLANTIC CITY MOCLDY 47 45 93 CALM 29.88F WRIGHTSTOWN PTCLDY 46 45 97 N2 29.86S TOMS RIVER MOCLDY 48 45 87 CALM 29.89S BELMAR MOCLDY 54 43 66 S5 29.88F $$ PAZ047>061-062-071-211200- EASTERN PENNSYLVANIA CITY SKY/WX TMP DP RH WIND PRES REMARKS PHILADELPHIA MOCLDY 54 49 83 CALM 29.87S ALLENTOWN CLOUDY 50 48 93 CALM 29.87S SCRANTON LGT RAIN 52 46 80 E3 29.84F $$ CTZ002-004>006-009-010-012-RIZ004-006-007-MAZ004-011-015-211200- SOUTHERN NEW ENGLAND IN CT CITY SKY/WX TMP DP RH WIND PRES REMARKS BRADLEY INTL CLOUDY 45 41 86 NE3 29.92S HARTFORD CLOUDY 47 43 86 VRB3 29.93S DANBURY CLOUDY 44 31 60 CALM 29.92F WTRBRY/OXFORD NOT AVBL BRIDGEPORT CLOUDY 53 48 83 NE5 29.91S MERIDEN CLOUDY 46 43 89 NW5 29.92F NEW HAVEN CLOUDY 53 47 79 NW8 29.92R CHESTER FAIR 48 46 93 CALM 29.93S GROTON CLOUDY 49 48 97 N3 29.93S WILLIMANTIC CLOUDY 41 38 89 CALM 29.94F IN RI CITY SKY/WX TMP DP RH WIND PRES REMARKS PROVIDENCE CLOUDY 48 46 93 N3 29.94F BLOCK ISLAND CLOUDY 59 52 77 SE7 29.92S WESTERLY CLOUDY 49 48 97 N3 29.94S IN MA CITY SKY/WX TMP DP RH WIND PRES REMARKS BOSTON CLOUDY 53 50 89 E6 29.97F WORCESTER CLOUDY 46 42 86 NE5 29.95S WESTFIELD CLOUDY 45 41 86 N6 29.93S PROVINCETOWN CLOUDY 55 50 82 SE7 29.99R NANTUCKET CLOUDY 58 54 86 SE13 29.99R $$ ANZ330-335-338-340-345-350-353-355-211200- COASTAL MARINE OBSERVATIONS STATION/POSITION TIME SKY/WX TEMP WIND PRES VSBY WAVE AIR SEA DIR/SP/G HT/PER (UTC) (F) (DEG/KT/KT) (MB) (MI) (FT/S) NY HARB ENTRANCE NOT AVBL 4S FIRE IS 1100 63 N/A 4/ 6 20S FIRE ISLAND 1100 63 63 210/ 4/ 6 1012.6 4/ 6 23SW MTP 1100 N/A 4/ 6 HUDSON CANYON 1100 65 66 200/ 6/ 8 1012.6 4/ 6 EXECUTION ROCKS 1100 57 63 110/ 4/ 6 N/A WESTERN LI SOUND 1100 58 150/ 4/ 4 N/A 0 CENTRAL LI SOUND 1000 62 64 170/ 4/ 6 N/A 1 EASTERN LI SOUND 1000 56 64 20/ 8/ 8 N/A ROBBINS REEF 1100 57 40/ 2/ 3 1011.0 $$ >>>>>>>>>>>>>>>>>>>>>>>>>>>> KEY <<<<<<<<<<<<<<<<<<<<<<<<<<< > < > SKY/WX - SKY CONDITION/PRESENT WEATHER < > TMP - TEMPERATURE IN FAHRENHEIT < > DP - DEWPOINT IN FAHRENHEIT < > RH - RELATIVE HUMIDITY IN PERCENT < > WIND - DIRECTION AND SPEED IN MPH < > PRES - MEAN SEA LEVEL PRESSURE IN INCHES OF HG < > WCI - WIND CHILL INDEX < > VSB - VISIBILITY IN MILES < > HX - HEAT INDEX < > TC - TEMPERATURE IN CELSIUS < > VRB - VARIABLE WIND DIRECTION < > < >>>>>>>>>>>>>>>>>>>>>>>>>>>> KEY <<<<<<<<<<<<<<<<<<<<<<<<<<<

USA.gov is the U.S. government's official web portal to all federal, state and local government web resources and services.